| time (UTC) | temp F | wind direction | speed MPH | gust MPH | rain 1hr in | rain 24hr in | rain mn in | humidity % | barometer mb |
| 20260502183806 | 75 | 51 | 1.0 | 6.0 | 0.00 | 0.00 | 0.00 | 47 | 1022.1 |
| 20260502183302 | 76 | 136 | 0.0 | 3.0 | 0.00 | 0.00 | 0.00 | 45 | 1022.3 |
| 20260502182757 | 75 | 69 | 1.0 | 2.0 | 0.00 | 0.00 | 0.00 | 43 | 1022.2 |
| 20260502182253 | 75 | 105 | 2.0 | 3.0 | 0.00 | 0.00 | 0.00 | 43 | 1022.3 |
| 20260502181749 | 76 | 87 | 1.0 | 2.0 | 0.00 | 0.00 | 0.00 | 46 | 1022.2 |
| 20260502181249 | 76 | 78 | 2.0 | 4.0 | 0.00 | 0.00 | 0.00 | 44 | 1022.4 |
| 20260502180746 | 75 | 141 | 1.0 | 2.0 | 0.00 | 0.00 | 0.00 | 48 | 1022.5 |
| 20260502180243 | 74 | 209 | 2.0 | 2.0 | 0.00 | 0.00 | 0.00 | 45 | 1022.5 |
| 20260502170208 | 70 | 20 | 0.0 | 3.0 | 0.00 | 0.00 | 0.00 | 52 | 1023.3 |
| 20260502164154 | 69 | 6 | 2.0 | 3.0 | 0.00 | 0.00 | 0.00 | 56 | 1023.4 |
| 20260502163649 | 67 | 25 | 1.0 | 4.0 | 0.00 | 0.00 | 0.00 | 59 | 1023.4 |
| 20260502163147 | 66 | 51 | 0.0 | 2.0 | 0.00 | 0.00 | 0.00 | 65 | 1023.4 |
| 20260502162643 | 65 | 206 | 6.0 | 6.0 | 0.00 | 0.00 | 0.00 | 58 | 1023.4 |
| 20260502162141 | 65 | 209 | 0.0 | 2.0 | 0.00 | 0.00 | 0.00 | 60 | 1023.4 |
| 20260502161638 | 65 | 50 | 0.0 | 2.0 | 0.00 | 0.00 | 0.00 | 59 | 1023.3 |
| 20260502161135 | 64 | 49 | 0.0 | 2.0 | 0.00 | 0.00 | 0.00 | 62 | 1023.5 |
| 20260502160633 | 63 | 29 | 2.0 | 2.0 | 0.00 | 0.00 | 0.00 | 72 | 1023.4 |
| 20260502160131 | 63 | 358 | 0.0 | 2.0 | 0.00 | 0.00 | 0.00 | 63 | 1023.5 |
| 20260502152045 | 60 | 38 | 0.0 | 2.0 | 0.00 | 0.00 | 0.00 | 69 | 1023.3 |
| 20260502151542 | 59 | 194 | 0.0 | 2.0 | 0.00 | 0.00 | 0.00 | 72 | 1023.4 |
| 20260502151040 | 59 | 76 | 0.0 | 2.0 | 0.00 | 0.00 | 0.00 | 78 | 1023.3 |
| 20260502150537 | 59 | 96 | 0.0 | 2.0 | 0.00 | 0.00 | 0.00 | 72 | 1023.4 |
| 20260502130422 | 50 | 68 | 2.0 | 2.0 | 0.00 | 0.00 | 0.00 | 97 | 1022.3 |
| 20260502123405 | 49 | 35 | 0.0 | 2.0 | 0.00 | 0.00 | 0.00 | 97 | 1021.7 |
| 20260502122902 | 49 | 33 | 1.0 | 2.0 | 0.00 | 0.00 | 0.00 | 97 | 1021.5 |
| 20260502122358 | 49 | 45 | 1.0 | 1.0 | 0.00 | 0.00 | 0.00 | 97 | 1021.5 |
| 20260502121856 | 48 | 50 | 1.0 | 2.0 | 0.00 | 0.00 | 0.00 | 97 | 1021.5 |
| 20260502121353 | 48 | 115 | 0.0 | 1.0 | 0.00 | 0.00 | 0.00 | 97 | 1021.5 |
| 20260502120851 | 48 | 39 | 1.0 | 2.0 | 0.00 | 0.00 | 0.00 | 97 | 1021.3 |
| 20260502120346 | 48 | 43 | 0.0 | 2.0 | 0.00 | 0.00 | 0.00 | 97 | 1021.1 |
| 20260502115844 | 48 | 54 | 1.0 | 1.0 | 0.00 | 0.00 | 0.00 | 97 | 1021.1 |
| 20260502115341 | 48 | 55 | 0.0 | 2.0 | 0.00 | 0.00 | 0.00 | 97 | 1021.0 |
| 20260502114837 | 48 | 55 | 1.0 | 2.0 | 0.00 | 0.00 | 0.00 | 97 | 1020.9 |
| 20260502114334 | 48 | 66 | 0.0 | 1.0 | 0.00 | 0.00 | 0.00 | 96 | 1020.7 |
| 20260502113831 | 48 | 112 | 0.0 | 2.0 | 0.00 | 0.00 | 0.00 | 96 | 1020.8 |
| 20260502113329 | 48 | 104 | 0.0 | 2.0 | 0.00 | 0.00 | 0.00 | 96 | 1020.9 |
| 20260502112827 | 49 | 92 | 2.0 | 2.0 | 0.00 | 0.00 | 0.00 | 96 | 1020.8 |
| 20260502112324 | 49 | 94 | 0.0 | 1.0 | 0.00 | 0.00 | 0.00 | 96 | 1020.7 |
| 20260502111821 | 49 | 64 | 1.0 | 2.0 | 0.00 | 0.00 | 0.00 | 96 | 1020.6 |
| 20260502111319 | 49 | 10 | 1.0 | 1.0 | 0.00 | 0.00 | 0.00 | 96 | 1020.7 |
| 20260502110817 | 49 | 51 | 1.0 | 2.0 | 0.00 | 0.00 | 0.00 | 96 | 1020.8 |
| 20260502110314 | 49 | 32 | 0.0 | 1.0 | 0.00 | 0.00 | 0.00 | 96 | 1020.7 |
| 20260502105811 | 49 | 55 | 0.0 | 1.0 | 0.00 | 0.00 | 0.00 | 96 | 1020.5 |
| 20260502105308 | 49 | 44 | 0.0 | 1.0 | 0.00 | 0.00 | 0.00 | 96 | 1020.6 |
| 20260502104806 | 50 | 58 | 0.0 | 1.0 | 0.00 | 0.00 | 0.00 | 96 | 1020.3 |
| 20260502104303 | 50 | 50 | 1.0 | 2.0 | 0.00 | 0.00 | 0.00 | 96 | 1020.5 |
| 20260502103800 | 50 | 81 | 0.0 | 1.0 | 0.00 | 0.00 | 0.00 | 95 | 1020.1 |
| 20260502103257 | 50 | 89 | 0.0 | 2.0 | 0.00 | 0.00 | 0.00 | 96 | 1020.0 |
| 20260502102755 | 50 | 79 | 1.0 | 2.0 | 0.00 | 0.00 | 0.00 | 96 | 1019.9 |
| 20260502102251 | 50 | 64 | 1.0 | 2.0 | 0.00 | 0.00 | 0.00 | 96 | 1020.0 |
| 20260502101749 | 50 | 60 | 0.0 | 1.0 | 0.00 | 0.00 | 0.00 | 96 | 1019.9 |
| 20260502101247 | 50 | 54 | 1.0 | 1.0 | 0.00 | 0.00 | 0.00 | 96 | 1019.7 |
| 20260502100745 | 50 | 60 | 0.0 | 1.0 | 0.00 | 0.00 | 0.00 | 96 | 1019.6 |
| 20260502100243 | 50 | 49 | 2.0 | 2.0 | 0.00 | 0.00 | 0.00 | 96 | 1019.6 |
| 20260502091217 | 50 | 38 | 1.0 | 2.0 | 0.00 | 0.00 | 0.00 | 96 | 1019.0 |
| 20260502090715 | 51 | 62 | 0.0 | 2.0 | 0.00 | 0.00 | 0.00 | 96 | 1019.1 |
| 20260502090211 | 51 | 34 | 0.0 | 2.0 | 0.00 | 0.00 | 0.00 | 95 | 1018.9 |
| 20260502071113 | 52 | 37 | 1.0 | 1.0 | 0.00 | 0.00 | 0.00 | 96 | 1018.8 |
| 20260502070611 | 52 | 36 | 0.0 | 2.0 | 0.00 | 0.00 | 0.00 | 96 | 1018.8 |
| 20260502070109 | 52 | 141 | 0.0 | 2.0 | 0.00 | 0.00 | 0.00 | 96 | 1018.7 |
| 20260502065607 | 52 | 4 | 0.0 | 1.0 | 0.00 | 0.00 | 0.00 | 95 | 1018.6 |
| 20260502065104 | 52 | 36 | 1.0 | 2.0 | 0.00 | 0.00 | 0.00 | 96 | 1018.4 |
| 20260502064603 | 52 | 28 | 0.0 | 1.0 | 0.00 | 0.00 | 0.00 | 96 | 1018.6 |
| 20260502064059 | 52 | 44 | 1.0 | 2.0 | 0.00 | 0.00 | 0.00 | 96 | 1018.6 |
| 20260502063557 | 52 | 55 | 0.0 | 2.0 | 0.00 | 0.00 | 0.00 | 96 | 1018.8 |
| 20260502063055 | 52 | 24 | 2.0 | 2.0 | 0.00 | 0.00 | 0.00 | 96 | 1018.9 |
| 20260502062551 | 52 | 59 | 2.0 | 2.0 | 0.00 | 0.00 | 0.00 | 96 | 1018.8 |
| 20260502062049 | 52 | 23 | 0.0 | 2.0 | 0.00 | 0.00 | 0.00 | 96 | 1019.0 |
| 20260502061547 | 52 | 49 | 0.0 | 1.0 | 0.00 | 0.00 | 0.00 | 96 | 1018.9 |
| 20260502061044 | 52 | 113 | 0.0 | 1.0 | 0.00 | 0.00 | 0.00 | 96 | 1019.1 |
| 20260502060539 | 52 | 55 | 0.0 | 1.0 | 0.00 | 0.00 | 0.00 | 96 | 1019.0 |
| 20260502060036 | 52 | 89 | 0.0 | 2.0 | 0.00 | 0.00 | 0.00 | 96 | 1019.0 |
| 20260502055534 | 52 | 31 | 0.0 | 2.0 | 0.00 | 0.00 | 0.00 | 96 | 1018.9 |
| 20260502055032 | 52 | 31 | 1.0 | 2.0 | 0.00 | 0.00 | 0.00 | 96 | 1019.0 |
| 20260502054531 | 53 | 44 | 1.0 | 2.0 | 0.00 | 0.00 | 0.00 | 96 | 1019.1 |
| 20260502054027 | 53 | 44 | 0.0 | 1.0 | 0.00 | 0.00 | 0.00 | 96 | 1018.8 |
| 20260502053524 | 53 | 46 | 1.0 | 2.0 | 0.00 | 0.00 | 0.00 | 95 | 1018.9 |
| 20260502053022 | 52 | 49 | 0.0 | 2.0 | 0.00 | 0.00 | 0.00 | 96 | 1018.7 |
| 20260502052520 | 53 | 29 | 0.0 | 2.0 | 0.00 | 0.00 | 0.00 | 96 | 1018.7 |
| 20260502052018 | 53 | 32 | 2.0 | 2.0 | 0.00 | 0.00 | 0.00 | 96 | 1018.7 |
| 20260502051516 | 53 | 65 | 1.0 | 2.0 | 0.00 | 0.00 | 0.00 | 96 | 1018.6 |
| 20260502051013 | 53 | 30 | 2.0 | 2.0 | 0.00 | 0.00 | 0.00 | 96 | 1018.7 |
| 20260502050509 | 53 | 40 | 1.0 | 2.0 | 0.00 | 0.00 | 0.00 | 96 | 1018.7 |
| 20260502050007 | 53 | 68 | 1.0 | 2.0 | 0.00 | 1.33 | 1.33 | 95 | 1018.6 |
| 20260502045503 | 53 | 28 | 2.0 | 2.0 | 0.00 | 1.33 | 1.33 | 95 | 1018.7 |
| 20260502045000 | 53 | 40 | 0.0 | 2.0 | 0.00 | 1.33 | 1.33 | 95 | 1018.8 |
| 20260502044456 | 53 | 66 | 0.0 | 2.0 | 0.00 | 1.33 | 1.33 | 94 | 1018.7 |
| 20260502043953 | 53 | 45 | 1.0 | 2.0 | 0.00 | 1.33 | 1.33 | 93 | 1018.6 |
| 20260502043451 | 53 | 129 | 0.0 | 2.0 | 0.00 | 1.33 | 1.33 | 93 | 1018.6 |
| 20260502042950 | 53 | 45 | 1.0 | 1.0 | 0.00 | 1.33 | 1.33 | 92 | 1018.6 |
| 20260502042447 | 54 | 55 | 0.0 | 1.0 | 0.00 | 1.33 | 1.33 | 92 | 1018.5 |
| 20260502041945 | 54 | 82 | 0.0 | 2.0 | 0.00 | 1.33 | 1.33 | 93 | 1018.5 |
| 20260502041442 | 54 | 44 | 0.0 | 2.0 | 0.00 | 1.33 | 1.33 | 93 | 1018.7 |
| 20260502040939 | 54 | 77 | 1.0 | 2.0 | 0.00 | 1.33 | 1.33 | 92 | 1018.6 |
| 20260502040435 | 54 | 46 | 0.0 | 2.0 | 0.00 | 1.33 | 1.33 | 93 | 1018.7 |
| 20260502035932 | 54 | 54 | 0.0 | 2.0 | 0.00 | 1.33 | 1.33 | 93 | 1018.4 |
| 20260502035428 | 54 | 35 | 2.0 | 2.0 | 0.00 | 1.33 | 1.33 | 93 | 1018.7 |
| 20260502034926 | 54 | 16 | 0.0 | 2.0 | 0.00 | 1.33 | 1.33 | 92 | 1018.6 |
| 20260502034425 | 54 | 49 | 0.0 | 2.0 | 0.00 | 1.33 | 1.33 | 91 | 1018.7 |
| 20260502033922 | 54 | 43 | 0.0 | 2.0 | 0.00 | 1.33 | 1.33 | 91 | 1018.9 |
| 20260502033420 | 54 | 32 | 0.0 | 1.0 | 0.00 | 1.33 | 1.33 | 89 | 1018.7 |
| 20260502032916 | 54 | 66 | 0.0 | 2.0 | 0.00 | 1.33 | 1.33 | 91 | 1018.8 |
| 20260502032413 | 54 | 59 | 2.0 | 2.0 | 0.00 | 1.33 | 1.33 | 89 | 1018.8 |
| 20260502031910 | 54 | 343 | 0.0 | 2.0 | 0.00 | 1.33 | 1.33 | 91 | 1018.5 |
| 20260502031409 | 54 | 24 | 1.0 | 2.0 | 0.00 | 1.33 | 1.33 | 90 | 1018.5 |
| 20260502030907 | 54 | 27 | 0.0 | 2.0 | 0.00 | 1.33 | 1.33 | 88 | 1018.3 |
| 20260502030404 | 54 | 36 | 1.0 | 2.0 | 0.00 | 1.33 | 1.33 | 86 | 1018.2 |
| 20260502025902 | 54 | 331 | 1.0 | 2.0 | 0.00 | 1.33 | 1.33 | 89 | 1018.3 |
| 20260502025359 | 54 | 64 | 1.0 | 3.0 | 0.00 | 1.33 | 1.33 | 86 | 1018.2 |
| 20260502024857 | 54 | 66 | 0.0 | 2.0 | 0.00 | 1.33 | 1.33 | 89 | 1018.2 |
| 20260502024354 | 54 | 22 | 2.0 | 3.0 | 0.00 | 1.33 | 1.33 | 89 | 1018.1 |
| 20260502023852 | 54 | 73 | 1.0 | 4.0 | 0.00 | 1.33 | 1.33 | 90 | 1018.0 |
| 20260502023349 | 54 | 39 | 2.0 | 2.0 | 0.00 | 1.33 | 1.33 | 90 | 1017.8 |
| 20260502022847 | 54 | 44 | 0.0 | 2.0 | 0.00 | 1.33 | 1.33 | 92 | 1017.7 |
| 20260502022343 | 54 | 51 | 1.0 | 2.0 | 0.00 | 1.33 | 1.33 | 91 | 1017.8 |
| 20260502021840 | 54 | 79 | 2.0 | 2.0 | 0.00 | 1.33 | 1.33 | 91 | 1017.5 |
| 20260502021337 | 54 | 46 | 0.0 | 4.0 | 0.00 | 1.33 | 1.33 | 90 | 1017.3 |
| 20260502020835 | 54 | 18 | 0.0 | 2.0 | 0.00 | 1.33 | 1.33 | 91 | 1017.2 |
| 20260502020332 | 54 | 61 | 0.0 | 2.0 | 0.00 | 1.33 | 1.33 | 90 | 1017.3 |
| 20260502015829 | 54 | 336 | 0.0 | 1.0 | 0.00 | 1.33 | 1.33 | 91 | 1017.3 |
| 20260502015326 | 54 | 352 | 2.0 | 3.0 | 0.00 | 1.33 | 1.33 | 90 | 1017.1 |
| 20260502014823 | 54 | 60 | 2.0 | 2.0 | 0.00 | 1.33 | 1.33 | 91 | 1017.1 |
| 20260502014320 | 55 | 25 | 0.0 | 2.0 | 0.00 | 1.33 | 1.33 | 91 | 1016.9 |
| 20260502013816 | 54 | 344 | 2.0 | 2.0 | 0.00 | 1.33 | 1.33 | 90 | 1017.0 |
| 20260502013312 | 54 | 34 | 2.0 | 2.0 | 0.00 | 1.33 | 1.33 | 90 | 1016.7 |
| 20260502012809 | 54 | 257 | 0.0 | 3.0 | 0.00 | 1.33 | 1.33 | 89 | 1016.6 |
| 20260502012307 | 54 | 207 | 0.0 | 2.0 | 0.00 | 1.33 | 1.33 | 91 | 1016.5 |
| 20260502011804 | 54 | 305 | 0.0 | 3.0 | 0.00 | 1.33 | 1.33 | 89 | 1016.7 |
| 20260502011300 | 54 | 24 | 0.0 | 3.0 | 0.00 | 1.33 | 1.33 | 91 | 1016.4 |
| 20260502010757 | 54 | 42 | 2.0 | 4.0 | 0.00 | 1.33 | 1.33 | 90 | 1016.3 |
| 20260502010253 | 54 | 4 | 2.0 | 4.0 | 0.00 | 1.33 | 1.33 | 92 | 1016.2 |
| 20260502005751 | 54 | 13 | 0.0 | 4.0 | 0.00 | 1.33 | 1.33 | 91 | 1016.0 |
| 20260502005248 | 54 | 224 | 1.0 | 3.0 | 0.00 | 1.33 | 1.33 | 93 | 1016.1 |
| 20260502004745 | 54 | 4 | 0.0 | 4.0 | 0.00 | 1.33 | 1.33 | 92 | 1016.0 |
| 20260502004241 | 54 | 66 | 0.0 | 2.0 | 0.00 | 1.33 | 1.33 | 93 | 1016.0 |
| 20260502003739 | 54 | 27 | 1.0 | 2.0 | 0.00 | 1.33 | 1.33 | 93 | 1015.7 |
| 20260502003237 | 54 | 354 | 1.0 | 3.0 | 0.00 | 1.33 | 1.33 | 94 | 1015.9 |
| 20260502002732 | 54 | 200 | 0.0 | 5.0 | 0.00 | 1.33 | 1.33 | 93 | 1015.6 |
| 20260502002230 | 54 | 27 | 2.0 | 3.0 | 0.00 | 1.33 | 1.33 | 94 | 1015.5 |
| 20260502001727 | 54 | 8 | 0.0 | 2.0 | 0.02 | 1.33 | 1.33 | 95 | 1015.3 |
| 20260502001225 | 54 | 109 | 2.0 | 3.0 | 0.02 | 1.33 | 1.33 | 95 | 1015.4 |
| 20260502000722 | 54 | 237 | 1.0 | 3.0 | 0.00 | 1.33 | 1.33 | 94 | 1015.4 |
| 20260502000220 | 55 | 150 | 0.0 | 2.0 | 0.05 | 1.33 | 1.33 | 95 | 1015.4 |
| 20260501235715 | 55 | 27 | 2.0 | 4.0 | 0.02 | 1.33 | 1.33 | 96 | 1014.8 |
| 20260501235212 | 55 | 340 | 1.0 | 2.0 | 0.02 | 1.32 | 1.32 | 96 | 1014.6 |
| 20260501234708 | 55 | 26 | 0.0 | 2.0 | 0.05 | 1.32 | 1.32 | 96 | 1015.0 |
| 20260501234205 | 55 | 343 | 1.0 | 2.0 | 0.02 | 1.32 | 1.32 | 96 | 1015.2 |
| 20260501233703 | 56 | 309 | 0.0 | 2.0 | 0.00 | 1.31 | 1.31 | 96 | 1015.6 |
| 20260501233200 | 55 | 42 | 2.0 | 2.0 | 0.00 | 1.31 | 1.31 | 96 | 1015.4 |
| 20260501232655 | 56 | 86 | 1.0 | 2.0 | 0.00 | 1.31 | 1.31 | 96 | 1015.1 |
| 20260501232153 | 55 | 325 | 0.0 | 2.0 | 0.02 | 1.31 | 1.31 | 95 | 1015.2 |
| 20260501231651 | 55 | 326 | 1.0 | 4.0 | 0.02 | 1.31 | 1.31 | 95 | 1014.8 |
| 20260501231149 | 55 | 89 | 0.0 | 3.0 | 0.00 | 1.31 | 1.31 | 95 | 1014.9 |
| 20260501230647 | 55 | 159 | 0.0 | 3.0 | 0.00 | 1.31 | 1.31 | 96 | 1014.6 |
| 20260501230145 | 56 | 227 | 2.0 | 4.0 | 0.00 | 1.31 | 1.31 | 95 | 1014.5 |
| 20260501225642 | 56 | 170 | 0.0 | 3.0 | 0.00 | 1.31 | 1.31 | 95 | 1014.5 |
| 20260501225138 | 56 | 15 | 2.0 | 3.0 | 0.02 | 1.31 | 1.31 | 95 | 1014.6 |
| 20260501224635 | 56 | 18 | 2.0 | 2.0 | 0.02 | 1.31 | 1.31 | 96 | 1014.6 |
| 20260501224132 | 57 | 35 | 2.0 | 2.0 | 0.00 | 1.31 | 1.31 | 97 | 1014.8 |
| 20260501223629 | 57 | 189 | 3.0 | 3.0 | 0.00 | 1.31 | 1.31 | 96 | 1014.6 |
| 20260501223125 | 56 | 131 | 1.0 | 4.0 | 0.02 | 1.31 | 1.31 | 96 | 1014.2 |
| 20260501222621 | 57 | 81 | 1.0 | 4.0 | 0.02 | 1.31 | 1.31 | 97 | 1014.0 |
| 20260501222119 | 56 | 249 | 2.0 | 5.0 | 0.02 | 1.30 | 1.30 | 97 | 1013.9 |
| 20260501221615 | 57 | 289 | 2.0 | 4.0 | 0.02 | 1.30 | 1.30 | 97 | 1014.2 |
| 20260501221113 | 57 | 311 | 2.0 | 4.0 | 0.00 | 1.30 | 1.30 | 97 | 1014.5 |
| 20260501220611 | 56 | 11 | 0.0 | 2.0 | 0.05 | 1.30 | 1.30 | 96 | 1014.5 |
| 20260501220107 | 57 | 343 | 1.0 | 3.0 | 0.09 | 1.29 | 1.29 | 97 | 1014.6 |
| 20260501215604 | 57 | 353 | 2.0 | 3.0 | 0.19 | 1.29 | 1.29 | 97 | 1014.8 |
| 20260501215059 | 57 | 35 | 1.0 | 2.0 | 0.14 | 1.28 | 1.28 | 97 | 1013.9 |
| 20260501214554 | 57 | 357 | 2.0 | 3.0 | 0.07 | 1.26 | 1.26 | 97 | 1013.6 |
| 20260501214050 | 57 | 359 | 2.0 | 4.0 | 0.07 | 1.25 | 1.25 | 96 | 1014.2 |
| 20260501213547 | 57 | 89 | 0.0 | 2.0 | 0.12 | 1.25 | 1.25 | 96 | 1014.5 |
| 20260501213043 | 57 | 50 | 2.0 | 2.0 | 0.14 | 1.24 | 1.24 | 96 | 1014.3 |
| 20260501212540 | 57 | 7 | 2.0 | 4.0 | 0.12 | 1.22 | 1.22 | 95 | 1014.0 |
| 20260501212037 | 58 | 13 | 0.0 | 2.0 | 0.02 | 1.21 | 1.21 | 96 | 1013.7 |
| 20260501211533 | 58 | 12 | 2.0 | 2.0 | 0.00 | 1.21 | 1.21 | 96 | 1013.4 |
| 20260501211032 | 58 | 305 | 2.0 | 4.0 | 0.00 | 1.21 | 1.21 | 95 | 1013.3 |
| 20260501210527 | 58 | 83 | 2.0 | 3.0 | 0.00 | 1.21 | 1.21 | 95 | 1013.2 |
| 20260501210024 | 57 | 232 | 2.0 | 4.0 | 0.00 | 1.21 | 1.21 | 95 | 1013.2 |
| 20260501205521 | 58 | 152 | 2.0 | 3.0 | 0.00 | 1.21 | 1.21 | 95 | 1013.2 |
| 20260501205019 | 58 | 311 | 1.0 | 2.0 | 0.05 | 1.21 | 1.21 | 95 | 1012.9 |
| 20260501204514 | 58 | 49 | 2.0 | 4.0 | 0.09 | 1.21 | 1.21 | 95 | 1012.8 |
| 20260501204011 | 58 | 94 | 1.0 | 3.0 | 0.05 | 1.20 | 1.20 | 95 | 1011.8 |
| 20260501203508 | 58 | 59 | 0.0 | 2.0 | 0.00 | 1.19 | 1.19 | 95 | 1012.6 |
| 20260501203006 | 59 | 321 | 0.0 | 2.0 | 0.00 | 1.19 | 1.19 | 95 | 1012.9 |
| 20260501202502 | 58 | 14 | 1.0 | 2.0 | 0.00 | 1.19 | 1.19 | 95 | 1012.7 |
| 20260501201958 | 59 | 11 | 3.0 | 3.0 | 0.00 | 1.19 | 1.19 | 95 | 1012.4 |
| 20260501201456 | 58 | 345 | 1.0 | 4.0 | 0.00 | 1.19 | 1.19 | 96 | 1011.5 |
| 20260501200952 | 59 | 278 | 1.0 | 4.0 | 0.02 | 1.19 | 1.19 | 96 | 1012.0 |
| 20260501200450 | 59 | 35 | 0.0 | 2.0 | 0.05 | 1.19 | 1.19 | 96 | 1012.3 |
| 20260501195947 | 59 | 279 | 2.0 | 3.0 | 0.09 | 1.19 | 1.19 | 96 | 1011.9 |
| 20260501195444 | 59 | 342 | 2.0 | 2.0 | 0.14 | 1.18 | 1.18 | 96 | 1012.2 |
| 20260501194939 | 58 | 33 | 1.0 | 3.0 | 0.14 | 1.17 | 1.17 | 96 | 1012.2 |
| 20260501194435 | 58 | 17 | 0.0 | 3.0 | 0.12 | 1.15 | 1.15 | 96 | 1012.5 |
| 20260501193931 | 58 | 297 | 0.0 | 2.0 | 0.12 | 1.14 | 1.14 | 96 | 1012.6 |
| 20260501193430 | 58 | 349 | 2.0 | 2.0 | 0.09 | 1.13 | 1.13 | 96 | 1013.1 |
| 20260501192927 | 58 | 104 | 0.0 | 2.0 | 0.09 | 1.12 | 1.12 | 96 | 1013.3 |
| 20260501192424 | 59 | 352 | 0.0 | 2.0 | 0.02 | 1.11 | 1.11 | 96 | 1013.8 |
| 20260501191921 | 59 | 2 | 1.0 | 2.0 | 0.00 | 1.11 | 1.11 | 96 | 1014.1 |
| 20260501191418 | 59 | 113 | 0.0 | 2.0 | 0.00 | 1.11 | 1.11 | 96 | 1014.2 |
| 20260501190915 | 59 | 74 | 2.0 | 2.0 | 0.00 | 1.11 | 1.11 | 96 | 1012.9 |
| 20260501190411 | 59 | 40 | 2.0 | 3.0 | 0.00 | 1.11 | 1.11 | 97 | 1012.4 |
| 20260501185911 | 58 | 192 | 2.0 | 5.0 | 0.00 | 1.11 | 1.11 | 96 | 1012.0 |
| 20260501185408 | 59 | 344 | 2.0 | 3.0 | 0.02 | 1.11 | 1.11 | 96 | 1011.9 |
| 20260501184904 | 58 | 216 | 2.0 | 4.0 | 0.02 | 1.11 | 1.11 | 97 | 1012.1 |
| 20260501184400 | 59 | 38 | 2.0 | 2.0 | 0.00 | 1.10 | 1.10 | 97 | 1012.1 |